TimeMST,TemperatureF,Dew PointF,Humidity,Sea Level PressureIn,VisibilityMPH,Wind Direction,Wind SpeedMPH,Gust SpeedMPH,PrecipitationIn,Events,Conditions,WindDirDegrees,DateUTC
12:57 AM,86.0,50.0,29,29.77,10.0,Calm,Calm,-,N/A,,Mostly Cloudy,0,2013-06-13 07:57:00
1:57 AM,82.9,51.1,33,29.77,10.0,South,4.6,-,N/A,,Mostly Cloudy,170,2013-06-13 08:57:00
2:57 AM,82.0,48.0,30,29.78,10.0,SSE,8.1,-,N/A,,Mostly Cloudy,150,2013-06-13 09:57:00
3:57 AM,80.1,51.1,36,29.80,10.0,SSE,10.4,-,N/A,,Scattered Clouds,150,2013-06-13 10:57:00
4:57 AM,80.1,54.0,40,29.80,10.0,SSE,6.9,-,N/A,,Partly Cloudy,160,2013-06-13 11:57:00
5:57 AM,79.0,55.0,44,29.81,10.0,SSE,8.1,-,N/A,,Partly Cloudy,160,2013-06-13 12:57:00
6:57 AM,82.0,55.0,39,29.82,10.0,SSE,6.9,-,N/A,,Partly Cloudy,160,2013-06-13 13:57:00
7:57 AM,86.0,52.0,31,29.83,10.0,SSE,12.7,-,N/A,,Partly Cloudy,160,2013-06-13 14:57:00
8:57 AM,91.0,48.0,23,29.85,10.0,SSE,11.5,-,N/A,,Partly Cloudy,160,2013-06-13 15:57:00
9:57 AM,93.9,42.1,17,29.85,10.0,South,11.5,-,N/A,,Partly Cloudy,180,2013-06-13 16:57:00
10:57 AM,96.1,39.0,14,29.85,10.0,ESE,4.6,-,N/A,,Partly Cloudy,120,2013-06-13 17:57:00
11:57 AM,98.6,41.0,14,29.83,10.0,SSE,10.4,-,N/A,,Partly Cloudy,160,2013-06-13 18:57:00
12:57 PM,100.4,42.8,14,29.82,10.0,SSW,8.1,-,N/A,,Partly Cloudy,210,2013-06-13 19:57:00
1:57 PM,102.2,42.8,13,29.79,10.0,SSE,6.9,-,N/A,,Partly Cloudy,160,2013-06-13 20:57:00
2:57 PM,102.0,42.1,13,29.76,10.0,SW,4.6,-,N/A,,Partly Cloudy,220,2013-06-13 21:57:00
3:57 PM,102.9,41.0,12,29.74,10.0,South,6.9,-,N/A,,Partly Cloudy,170,2013-06-13 22:57:00
4:57 PM,102.9,39.9,12,29.71,10.0,South,9.2,-,N/A,,Partly Cloudy,180,2013-06-13 23:57:00
5:57 PM,102.9,39.9,12,29.70,10.0,South,9.2,-,N/A,,Partly Cloudy,170,2013-06-14 00:57:00
6:57 PM,100.9,45.0,15,29.69,10.0,South,9.2,-,N/A,,Partly Cloudy,170,2013-06-14 01:57:00
7:57 PM,95.0,46.9,19,29.69,10.0,SSE,9.2,-,N/A,,Partly Cloudy,160,2013-06-14 02:57:00
8:57 PM,91.9,46.0,21,29.70,10.0,South,17.3,-,N/A,,Clear,170,2013-06-14 03:57:00
9:57 PM,87.1,50.0,28,29.72,10.0,South,12.7,-,N/A,,Clear,170,2013-06-14 04:57:00
10:57 PM,84.9,44.1,24,29.73,10.0,South,12.7,-,N/A,,Clear,170,2013-06-14 05:57:00
11:57 PM,82.9,45.0,26,29.74,10.0,SW,6.9,-,N/A,,Clear,220,2013-06-14 06:57:00